{"data":{"norad_id":58966,"intl_designator":"2024-031B","name":"STARLINK-31449","alt_names":[],"object_type":"PAYLOAD","status":"ACTIVE","operator":null,"country":"US","launch_date":"2024-02-15","launch_site_code":"AFWTR","launch_vehicle":null,"mission":null,"orbit_class":"UNKNOWN","rcs_meters":null,"size_class":null,"mass_kg":null,"dimensions":null,"purposes":["comms"],"wikipedia_slug":null,"has_3d_model":false,"image_url":null,"decayed_at":null,"tle_current":{"epoch":"2026-05-25T03:30:59.506848Z","epoch_age_seconds":56320,"freshness":"FRESH","line1":"1 58966U 24031B   26145.14652207 -.00000118  00000+0  81415-5 0  9993","line2":"2 58966  53.1614 301.2349 0001155 104.3692 255.7437 15.30193550128247","mean_motion":15.3019355,"eccentricity":0.0001155,"inclination_deg":53.1614,"raan_deg":301.2349,"arg_perigee_deg":104.3692,"mean_anomaly_deg":255.7437,"bstar":8.1415e-6,"rev_number":12824,"period_min":94.105742374878,"perigee_km":474.44276363596,"apogee_km":476.02589241274,"semimajor_km":6853.3713280244,"source":"CELESTRAK","updated_at":"2026-05-25T13:38:18.793004Z"}}}